COSMOS 2228

Last updated on Sun Jun 21 2026 00:02:15 GMT+0000 (Coordinated Universal Time)

1 22286U 92094A 26171.42846218 .00001457 00000+0 12222-3 0 9994 2 22286 82.5176 138.9381 0016616 320.7531 39.2486 14.97596173791433
UTC large
Height (km)
Speed (km/s)
/
Latitude / Longitude
Inclination (degrees)
Orbital Period (minutes)
Azimuth
Elevation
Range (km)
Doppler Factor

Next 0 passes for location: London (51.5072 / 0.1276)

No passes found over London.
COSMOS 2228